TimeEST,TemperatureF,Dew PointF,Humidity,Sea Level PressureIn,VisibilityMPH,Wind Direction,Wind SpeedMPH,Gust SpeedMPH,PrecipitationIn,Events,Conditions,WindDirDegrees,DateUTC
12:55 AM,26.1,4.8,40,30.27,10.0,WNW,9.2,-,N/A,,Clear,300,2013-02-18 05:55:00
1:55 AM,25.7,5.9,43,30.30,10.0,WNW,9.2,-,N/A,,Clear,290,2013-02-18 06:55:00
2:55 AM,26.1,6.8,44,30.31,10.0,WNW,10.4,-,N/A,,Clear,290,2013-02-18 07:55:00
3:55 AM,25.7,7.3,46,30.31,10.0,WNW,9.2,-,N/A,,Clear,300,2013-02-18 08:55:00
4:55 AM,24.1,9.0,53,30.34,10.0,West,8.1,-,N/A,,Clear,280,2013-02-18 09:55:00
5:55 AM,22.5,12.0,64,30.36,10.0,West,5.8,-,N/A,,Clear,260,2013-02-18 10:55:00
6:55 AM,21.6,13.6,72,30.38,10.0,Calm,Calm,-,N/A,,Clear,0,2013-02-18 11:55:00
7:55 AM,24.6,15.4,68,30.41,10.0,Calm,Calm,-,N/A,,Clear,0,2013-02-18 12:55:00
8:55 AM,29.5,11.3,47,30.42,10.0,Variable,5.8,-,N/A,,Clear,0,2013-02-18 13:55:00
9:55 AM,33.1,8.6,36,30.42,10.0,NNW,10.4,-,N/A,,Clear,330,2013-02-18 14:55:00
10:55 AM,35.2,9.0,34,30.43,10.0,West,9.2,-,N/A,,Clear,260,2013-02-18 15:55:00
11:55 AM,37.8,8.8,30,30.40,10.0,West,10.4,-,N/A,,Clear,270,2013-02-18 16:55:00
12:55 PM,39.2,10.8,31,30.38,10.0,WSW,8.1,-,N/A,,Clear,240,2013-02-18 17:55:00
1:55 PM,41.4,12.2,30,30.36,10.0,WSW,8.1,-,N/A,,Clear,240,2013-02-18 18:55:00
2:55 PM,43.3,11.5,27,30.34,10.0,SSW,10.4,-,N/A,,Clear,210,2013-02-18 19:55:00
3:55 PM,44.2,14.0,30,30.32,10.0,SSW,8.1,-,N/A,,Clear,200,2013-02-18 20:55:00
4:55 PM,44.1,11.8,27,30.31,10.0,South,9.2,-,N/A,,Clear,180,2013-02-18 21:55:00
5:55 PM,41.9,14.2,33,30.32,10.0,South,6.9,-,N/A,,Clear,180,2013-02-18 22:55:00
6:55 PM,40.3,16.7,39,30.32,10.0,SSW,8.1,-,N/A,,Clear,200,2013-02-18 23:55:00
7:55 PM,39.6,16.9,40,30.32,10.0,South,6.9,-,N/A,,Clear,190,2013-02-19 00:55:00
8:55 PM,39.6,19.4,44,30.32,10.0,South,9.2,-,N/A,,Clear,190,2013-02-19 01:55:00
9:55 PM,39.4,20.3,46,30.30,10.0,South,10.4,-,N/A,,Clear,190,2013-02-19 02:55:00
10:55 PM,38.7,21.0,49,30.29,10.0,South,11.5,-,N/A,,Clear,190,2013-02-19 03:55:00
11:55 PM,37.6,23.5,57,30.28,10.0,SSW,11.5,-,N/A,,Clear,200,2013-02-19 04:55:00